Flag for Australia Weather past 2 weeks in Perth, Western Australia, Australia

70 °F


Feels Like: 70 °F
Forecast: 63 / 86 °F
Wind: 6 mph from West

Location: Belmont Perth Airport

Current Time: Oct 10, 2015 at 8:38:13 AM

Latest Report: Oct 10, 2015 at 8:00 AM

Visibility: 10 mi

Pressure: 30.21 "Hg

Humidity: 60%

Dew point: 55 °F

Location of PerthLocation

Historic Weather in Perth — Graph


Perth temperature yesterday

Maximum temperature yesterday: 93 °F (at 12:00 PM)
Minimum temperature yesterday: 55 °F (at 1:00 AM)
Average temperature yesterday: 75 °F

Past Weeks' High & Low Weather Summary

High93 °F (Oct 9, 12:00 PM)100% (Sep 26, 4:00 AM)30.42 "Hg (Sep 26, 4:00 AM)
Low41 °F (Oct 6, 5:00 AM)11% (Oct 7, 3:30 PM)29.95 "Hg (Sep 28, 1:00 PM)
Average65 °F59%30.14 "Hg
* Reported Sep 25 7:00 AM — Oct 10 7:00 AM, Perth, Weather by CustomWeather, © 2015

Note: Actual official high and low records may vary slightly from our data, if they occured in-between our weather recording intervals... More about our weather records


Perth weather history for previous 24 hours

Time TempWeatherWind HumidityBarometerVisibility
7:00 AM
Sat, Oct 10
63 °FSunny.No wind77%30.18 "Hg10 mi
6:30 AM59 °FScattered showers. Scattered clouds.No wind88%30.15 "HgN/A
6:00 AM57 °FSunny.No wind94%30.15 "Hg10 mi
5:00 AM55 °FSunny.No wind94%30.15 "Hg10 mi
4:30 AM54 °FClear.No wind100%30.12 "Hg10 mi
4:00 AM55 °FClear.No wind94%30.12 "Hg10 mi
3:30 AM55 °FClear.No wind94%30.12 "Hg10 mi
3:00 AM55 °FClear.1 mph94%30.09 "Hg10 mi
2:00 AM57 °FClear.2 mph88%30.12 "Hg10 mi
1:30 AM57 °FClear.No wind88%30.12 "Hg10 mi
1:00 AM59 °FClear.No wind82%30.12 "Hg10 mi
12:30 AM61 °FClear.1 mph77%30.12 "Hg10 mi
12:00 AM63 °FScattered showers. Passing clouds.2 mph73%30.15 "HgN/A
11:30 PM
Fri, Oct 9
61 °FThundershowers. Passing clouds.6 mph83%30.15 "HgN/A
10:58 PM64 °FThunderstorms. Passing clouds.6 mph73%30.18 "HgN/A
10:30 PM64 °FClear.6 mph73%30.18 "Hg10 mi
10:00 PM66 °FClear.13 mph64%30.18 "Hg10 mi
9:30 PM68 °FClear.7 mph60%30.15 "Hg10 mi
9:00 PM68 °FClear.8 mph64%30.15 "Hg10 mi
8:30 PM70 °FClear.5 mph60%30.15 "Hg10 mi
8:00 PM72 °FClear.8 mph53%30.12 "Hg10 mi
7:30 PM73 °FClear.9 mph41%30.12 "Hg10 mi
7:00 PM73 °FClear.6 mph44%30.09 "Hg10 mi
6:30 PM77 °FClear.7 mph36%30.09 "Hg10 mi
6:00 PM79 °FClear.9 mph32%30.09 "Hg10 mi
5:30 PM82 °FClear.8 mph30%30.09 "Hg10 mi
5:00 PM84 °FSunny.8 mph27%30.09 "Hg10 mi
4:30 PM86 °FSunny.9 mph25%30.09 "Hg10 mi
4:00 PM86 °FSunny.12 mph27%30.09 "Hg10 mi
3:30 PM88 °FSunny.12 mph25%30.09 "Hg10 mi
3:00 PM88 °FSunny.13 mph24%30.07 "Hg10 mi
2:30 PM90 °FSunny.14 mph22%30.09 "Hg10 mi
2:00 PM90 °FSunny.13 mph22%30.09 "Hg10 mi
1:30 PM91 °FSunny.12 mph23%30.09 "Hg10 mi
1:00 PM91 °FSunny.10 mph23%30.09 "Hg10 mi
12:30 PM93 °FSunny.9 mph19%30.09 "Hg10 mi
12:00 PM93 °FSunny.7 mph16%30.09 "Hg10 mi
11:00 AM90 °FSunny.8 mph17%30.12 "Hg10 mi
10:30 AM88 °FSunny.6 mph19%30.15 "Hg10 mi
10:00 AM86 °FSunny.7 mph24%30.15 "Hg10 mi
9:30 AM82 °FSunny.5 mph23%30.15 "Hg10 mi
9:00 AM79 °FSunny.5 mph28%30.15 "Hg10 mi
8:30 AM75 °FSunny.6 mph29%30.15 "Hg10 mi
8:00 AM73 °FSunny.7 mph29%30.15 "Hg10 mi
Weather by CustomWeather, © 2015

See weather overviewHow to use our weather pages